Home   Weather   Dubbo   Past weeks

Flag for Australia Past Weather in Dubbo, New South Wales, Australia — Yesterday and Last 2 Weeks

Now
81 °F

Passing clouds.


Feels Like: 80 °F
Forecast: 75 / 97 °F
Wind: 10 mph from Northeast

Location: Dubbo Airport

Current Time: Jan 17, 2017 at 2:27:32 am

Latest Report: Jan 17, 2017 at 2:00 am


Visibility: N/A

Pressure: 29.92 "Hg

Humidity: 39%

Dew Point: 54 °F

Location of DubboLocation

Past Weather in Dubbo — Graph

°F

Dubbo Temperature Yesterday

Maximum temperature yesterday: 99 °F (at 5:30 pm)
Minimum temperature yesterday: 63 °F (at 5:30 am)
Average temperature yesterday: 80 °F

High & Low Weather Summary for the Past Weeks

 TemperatureHumidityPressure
High108 °F (Jan 13, 2:37 pm)94% (Jan 2, 3:30 am)30.09 "Hg (Jan 2, 3:30 am)
Low59 °F (Jan 15, 2:30 am)11% (Jan 12, 5:30 pm)29.56 "Hg (Jan 13, 5:30 pm)
Average81 °F48%29.87 "Hg
* Reported Jan 2 1:00 am — Jan 17 1:00 am, Dubbo, Weather by CustomWeather, © 2017

Note: Actual official high and low records may vary slightly from our data, if they occured in-between our weather recording intervals... More about our weather records

Advertising

Dubbo Weather History for the Previous 24 Hours

Scroll right to see more
 ConditionsComfort  
Time TempWeatherWind HumidityBarometerVisibility
1:00 am
Tue, Jan 17
81 °FPleasantly warm.N/A34%29.92 "HgN/A
12:00 am75 °FPassing clouds.7 mph47%29.92 "HgN/A
11:30 pm
Mon, Jan 16
77 °FClear.3 mph44%29.92 "HgN/A
11:00 pm79 °FClear.10 mph42%29.92 "HgN/A
10:30 pm79 °FClear.9 mph39%29.92 "HgN/A
10:00 pm79 °FClear.9 mph39%29.89 "HgN/A
9:30 pm79 °FClear.8 mph39%29.89 "HgN/A
9:00 pm82 °FClear.8 mph35%29.89 "HgN/A
8:30 pm84 °FClear.8 mph31%29.89 "HgN/A
8:00 pm88 °FSunny.8 mph29%29.89 "HgN/A
7:30 pm93 °FSunny.8 mph24%29.86 "HgN/A
7:00 pm95 °FSunny.8 mph22%29.86 "HgN/A
6:30 pm95 °FSunny.6 mph23%29.86 "HgN/A
6:00 pm97 °FSunny.7 mph22%29.86 "HgN/A
5:30 pm99 °FSunny.5 mph24%29.86 "HgN/A
5:00 pm97 °FSunny.2 mph23%29.86 "HgN/A
4:30 pm97 °FSunny.7 mph23%29.86 "HgN/A
4:00 pm97 °FSunny.5 mph25%29.89 "HgN/A
3:30 pm95 °FSunny.6 mph30%29.89 "HgN/A
3:00 pm95 °FSunny.7 mph30%29.89 "HgN/A
2:30 pm95 °FSunny.6 mph34%29.92 "HgN/A
2:00 pm93 °FSunny.3 mph36%29.92 "HgN/A
1:30 pm91 °FSunny.3 mph38%29.92 "HgN/A
1:00 pm90 °FSunny.5 mph41%29.95 "HgN/A
12:30 pm88 °FSunny.6 mph43%29.95 "HgN/A
12:00 pm86 °FSunny.7 mph46%29.98 "HgN/A
11:00 am84 °FSunny.12 mph51%29.98 "HgN/A
10:30 am82 °FSunny.9 mph51%30.01 "HgN/A
10:00 am79 °FSunny.13 mph54%30.01 "HgN/A
9:30 am77 °FSunny.13 mph57%30.01 "HgN/A
9:00 am75 °FSunny.14 mph61%30.01 "HgN/A
8:30 am73 °FSunny.14 mph65%30.01 "HgN/A
8:00 am70 °FSunny.16 mph73%30.01 "HgN/A
7:30 am68 °FSunny.14 mph78%30.01 "HgN/A
7:00 am66 °FSunny.8 mph83%30.01 "HgN/A
6:30 am64 °FSunny.10 mph83%29.98 "HgN/A
6:00 am64 °FClear.9 mph83%29.98 "HgN/A
5:30 am63 °FClear.6 mph83%29.98 "HgN/A
5:00 am66 °FClear.8 mph78%29.98 "HgN/A
4:30 am68 °FClear.12 mph73%29.95 "HgN/A
4:00 am66 °FClear.8 mph78%29.95 "HgN/A
3:30 am68 °FClear.12 mph73%29.95 "HgN/A
3:00 am68 °FClear.13 mph78%29.95 "HgN/A
2:30 am68 °FClear.12 mph73%29.95 "HgN/A
2:00 am70 °FClear.14 mph69%29.95 "HgN/A
Weather by CustomWeather, © 2017

See weather overviewHow to use our weather pages